Location: McFarlands Corners
(41.4117°N, 81.3382°W)
Time: 14:21:39
(UTC+00:00)

A-11 Canister half - Pass Details

Date: 18 February 2026
Orbit: 1513 x 1687 km, 47.2° (Epoch: 11 March)

Event Time Altitude Azimuth Distance (km) Brightness Sun altitude
Rises 02:41:42 0° 239° (WSW) 4,933 12.0 -41.2°
Reaches altitude 10° 02:44:52 10° 239° (WSW) 3,944 11.4 -41.7°
Enters shadow 02:51:46 50° 238° (WSW) 2,046 9.6 -42.9°
Maximum altitude 02:55:04 87° 152° (SSE) 1,671 - -43.4°
Drops below altitude 10° 03:05:03 10° 65° (ENE) 3,864 - -45.1°
Sets 03:08:08 0° 65° (ENE) 4,829 - -45.6°
